OneWeb SL0204

operational
NORAD ID: 48225 Int'l Des: 2021-031 Owner: ONEWEBN Country: UK Constellation: oneweb
LEOCIRCULARPOLARONEWEB_TYPE

Über OneWeb SL0204

Beschreibung wird geladen...

Live-Position

3D-Globus wird geladen...

Nächste Überflüge

Höhenverlauf

Altitude vs Time

uPlot chart will show altitude changes over time

Zweizeiliger Elementsatz

1 48225U 21031R 25352.91541888 .00000259 00000-0 66469-3 0 9999
2 48225 87.8995 325.6172 0001848 93.2298 266.9043 13.14504833224571
Epoch: 18. Dez. 2025 • Age: 6 hours

Aktueller Status

Höhe 1218.2 km
Geschwindigkeit 7.25 km/s
Subsatellitenpunkt 86.91°N, 138.3°W
Startdatum 25. Apr. 2021
Alter 4.6 years
Typ internet

Technische Details

Klassifizierung Payload
Masse 148.00 kg
Trockenmasse 140.00 kg
Gesamtmasse 148.00 kg
Länge 1.30 m
Durchmesser 1.00 m
Spannweite 5.00 m
Form Trapezoid+2 pan
Hersteller ONEWUS
Bus-Typ ARROW
Phasenstatus In Orbit
Besitzer/Staat ONEWEBN/UK

Große Konstellationen

Loading constellations...